Weather History for Baker, MT

Change the Weather History Date:

Tuesday, November 19, 2013

  Actual Average Record
Temperature  
Mean Temperature 41 °F -  
Max Temperature 54 °F 33 °F 64 °F (2003)
Min Temperature 28 °F 6 °F -11 °F (2011)
Degree Days  
Heating Degree Days 24    
Moisture  
Dew Point 26 °F    
Average Humidity 68    
Maximum Humidity 85    
Minimum Humidity 34    
Precipitation  
Precipitation 0.00 in - - ()
Sea Level Pressure  
Sea Level Pressure 29.65 in    
Wind  
Wind Speed 6 mph (South)    
Max Wind Speed 14 mph    
Max Gust Speed 21 mph    
Visibility 10 miles    
Events      
Averages and records for this station are not official NWS values.
T = Trace of Precipitation, MM = Missing Value Source: NWS Daily Summary

Daily Weather History Graph

Daily Weather History Graph

Search for Another Location

Airport:

Trip Planner

Search our weather history database for the weather conditions in past years. The results will help you decide how hot, cold, wet, or windy it might be!

Date:

Astronomy

Nov. 19, 2013 Rise Set
Actual Time 7:04 AM MST 4:20 PM MST
Civil Twilight 6:31 AM MST 4:53 PM MST
Nautical Twilight 5:54 AM MST 5:29 PM MST
Astronomical Twilight 5:18 AM MST 6:05 PM MST
Moon 6:12 PM MST (11/19) 8:46 AM MST (11/19)
Length of Visible Light 10h 21m
Length of Day
9h 15m
Waning Gibbous, 96% of the Moon is Illuminated
Nov 19
Waning Gibbous
Nov 25
Last Quarter
Dec 2
New
Dec 9
First Quarter
Dec 17
Full

Hourly Weather History & Observations

Time (MST) Temp. Windchill Dew Point Humidity Pressure Visibility Wind Dir Wind Speed Gust Speed Precip Events Conditions
12:51 AM 28.9 °F 19.8 °F 23.0 °F 78% 29.78 in 10.0 mi ESE 10.4 mph - N/A   Clear
1:51 AM 30.9 °F 25.2 °F 24.1 °F 76% 29.75 in 10.0 mi ESE 5.8 mph - N/A   Clear
2:51 AM 32.0 °F 24.2 °F 25.0 °F 75% 29.71 in 10.0 mi ESE 9.2 mph - N/A   Clear
3:51 AM 30.9 °F 25.2 °F 26.1 °F 82% 29.72 in 10.0 mi ESE 5.8 mph - N/A   Clear
4:51 AM 30.0 °F 22.4 °F 25.0 °F 82% 29.72 in 10.0 mi SE 8.1 mph - N/A   Clear
5:51 AM 30.0 °F - 25.0 °F 82% 29.69 in 10.0 mi Calm Calm - N/A   Clear
6:51 AM 28.9 °F 25.2 °F 24.1 °F 82% 29.68 in 10.0 mi East 3.5 mph - N/A   Clear
7:51 AM 30.0 °F - 25.0 °F 82% 29.66 in 10.0 mi Calm Calm - N/A   Clear
8:51 AM 33.1 °F - 27.0 °F 78% 29.65 in 10.0 mi Calm Calm - N/A   Clear
9:51 AM 35.1 °F 32.2 °F 28.9 °F 78% 29.64 in 10.0 mi SSE 3.5 mph - N/A   Clear
10:51 AM 42.1 °F - 30.0 °F 62% 29.62 in 10.0 mi Calm Calm - N/A   Clear
11:51 AM 52.0 °F - 28.0 °F 40% 29.57 in 10.0 mi WSW 9.2 mph - N/A   Clear
12:51 PM 54.0 °F - 26.1 °F 34% 29.57 in 10.0 mi West 11.5 mph - N/A   Clear
1:51 PM 54.0 °F - 26.1 °F 34% 29.55 in 10.0 mi West 13.8 mph - N/A   Clear
2:51 PM 52.0 °F - 27.0 °F 38% 29.56 in 10.0 mi West 9.2 mph - N/A   Clear
3:51 PM 46.9 °F - 28.0 °F 48% 29.59 in 10.0 mi WSW 10.4 mph - N/A   Clear
4:51 PM 39.9 °F 36.7 °F 27.0 °F 60% 29.62 in 10.0 mi SSW 4.6 mph - N/A   Clear
5:51 PM 41.0 °F - 27.0 °F 57% 29.63 in 10.0 mi Calm Calm - N/A   Clear
6:51 PM 35.1 °F - 26.1 °F 70% 29.64 in 10.0 mi Calm Calm - N/A   Clear
7:51 PM 32.0 °F 28.7 °F 26.1 °F 79% 29.65 in 10.0 mi SSE 3.5 mph - N/A   Clear
8:51 PM 36.0 °F 32.1 °F 27.0 °F 70% 29.64 in 10.0 mi South 4.6 mph - N/A   Clear
9:51 PM 30.0 °F - 25.0 °F 82% 29.67 in 10.0 mi Calm Calm - N/A   Clear
10:51 PM 30.0 °F 23.2 °F 26.1 °F 85% 29.68 in 10.0 mi NW 6.9 mph - N/A   Mostly Cloudy
11:51 PM 32.0 °F 23.6 °F 27.0 °F 82% 29.70 in 10.0 mi NW 10.4 mph 20.7 mph N/A   Clear